Weather in Sakharovka

Russia / Republic of Tatarstan     55°18′37″N   50°17′24″E
В апреле 2022 года жителям России запретили посещать сайт meteo.paraplan.net по решению Генеральной прокуратуры. Аудитория сайта уменьшилась в 10 раз. Владельцы сайта не видят смысла в поддержке погодного сервера в таких условиях. Сайт будет закрыт в октябре.
temp.,
°C
wind,
m/s
gust,
m/s
humid.,
%
clouds,
%
prec.,
mm/h
press.,
hPa
HPBL,
m
4 october, tue
tue400:00+12sse71539100 0.0 1022480
03:00+12sse71439100 0.0 1022434
06:00+11sse61439100 0.0 1023441
09:00+12sse71337100 0.0 1024521
12:00+13s61136100 0.0 1026717
15:00+13sse71336100 0.0 1025524
18:00+11sse6143798 0.0 1025435
21:00+11sse71634100 0.0 1025479
5 october, wed
wed500:00+11sse71436100 0.0 1025496
03:00+9sse51372100 0.3 1025622
06:00+8sse71363100 1.3 1024674
09:00+9sse61272100 1.4 1023605
12:00+12s7125290 0.0 1023687
15:00+12s71254100 0.0 1022676
18:00+11s61350100 0.1 1021459
21:00+9s71372100 1.4 1020586
6 october, thu
thu600:00+9sse61292100 2.9 1018626
03:00+8s71291100 7.1 1017446
06:00+8s599455 0.4 1015306
09:00+10wsw577948 0.4 1014692
12:00+11sw576787 0.3 10141179
15:00+8w697576 0.6 1016864
18:00+8wsw477992 0.2 1017813
21:00+7w368387 0.4 1017680
7 october, fri
fri700:00+7w368690 0.4 1017423
03:00+7wsw368784 0.6 1018373
06:00+7wsw4891100 0.0 1017398
09:00+9wsw67745 0.1 1017601
12:00+10sw6962100 0.0 1016932
15:00+8sw71282100 0.1 1015678
18:00+10w71189100 0.4 1016748
21:00+10w71284100 0.6 1017729
8 october, sat
sat800:00+10w71377100 0.1 1018493
03:00+9wnw7128097 0.1 1020852
06:00+8w6128724 0.0 1021477
09:00+9w798020 0.0 1023551
12:00+11w67660 0.0 1024815
15:00+13w57630 0.0 1023980
18:00+10wsw37795 0.0 1024133
21:00+8sw38845 0.0 1024146